Location: Peebles
(55.6412°N, 3.1714°W)
Time: 12:29:59
(UTC+00:00)

CUTE-I - Pass Details

Date: 18 December 2023
Orbit: 807 x 823 km, 98.7° (Epoch: 24 February)

Event Time Altitude Azimuth Distance (km) Brightness Sun altitude
Rises 05:24:07 0° 23° (NNE) 3,372 ? -25.4°
Reaches altitude 10° 05:27:03 10° 39° (NE) 2,435 ? -25.0°
Maximum altitude 05:31:07 21° 88° (E) 1,762 ? -24.4°
Drops below altitude 10° 05:35:10 10° 138° (SE) 2,422 ? -23.8°
Sets 05:38:04 0° 153° (SSE) 3,349 ? -23.4°
